Time,TemperatureF,DewpointF,PressureIn,WindDirection,WindDirectionDegrees,WindSpeedMPH,WindSpeedGustMPH,Humidity,HourlyPrecipIn,Conditions,Clouds,dailyrainin,SoftwareType,DateUTC
2013-09-13 00:01:00,67.6,61.6,29.94,West,267,0.0,0.0,81,0.00,RA,,0.00,WeatherDisplay:10.37,2013-09-13 04:01:00,
2013-09-13 00:02:00,67.6,61.6,29.94,WSW,245,0.2,3.1,81,0.00,RA,,0.00,WeatherDisplay:10.37,2013-09-13 04:02:00,
2013-09-13 00:07:00,67.6,61.6,29.94,NW,312,2.9,3.5,81,0.00,RA,,0.00,WeatherDisplay:10.37,2013-09-13 04:07:00,
2013-09-13 00:12:00,67.8,61.8,29.94,WSW,245,1.6,1.6,81,0.00,CLR,,0.00,WeatherDisplay:10.37,2013-09-13 04:12:00,
2013-09-13 00:17:00,67.8,61.8,29.94,NW,312,3.7,6.7,81,0.00,CLR,,0.00,WeatherDisplay:10.37,2013-09-13 04:17:00,
2013-09-13 00:22:00,68.0,61.6,29.94,SW,222,3.2,6.9,80,0.00,CLR,,0.00,WeatherDisplay:10.37,2013-09-13 04:22:00,
2013-09-13 00:27:00,68.2,61.8,29.94,West,267,2.9,3.5,80,0.00,CLR,,0.00,WeatherDisplay:10.37,2013-09-13 04:27:00,
2013-09-13 00:32:00,68.5,61.8,29.94,SW,222,1.2,2.3,79,0.00,CLR,,0.00,WeatherDisplay:10.37,2013-09-13 04:32:00,
2013-09-13 00:37:00,68.5,61.8,29.94,West,267,2.9,3.5,79,0.00,CLR,,0.00,WeatherDisplay:10.37,2013-09-13 04:37:00,
2013-09-13 00:42:00,68.5,61.8,29.94,West,267,4.2,4.6,79,0.00,CLR,,0.00,WeatherDisplay:10.37,2013-09-13 04:42:00,
2013-09-13 00:47:00,68.4,61.6,29.95,SW,222,2.4,2.9,79,0.00,CLR,,0.00,WeatherDisplay:10.37,2013-09-13 04:47:00,
2013-09-13 00:52:00,68.4,61.6,29.95,West,267,1.7,4.6,79,0.00,CLR,,0.00,WeatherDisplay:10.37,2013-09-13 04:52:00,
2013-09-13 00:57:00,68.2,61.4,29.95,NW,312,2.2,2.3,79,0.00,CLR,,0.00,WeatherDisplay:10.37,2013-09-13 04:57:00,
2013-09-13 01:02:00,67.8,61.1,29.95,WNW,289,0.7,1.1,79,0.00,CLR,,0.00,WeatherDisplay:10.37,2013-09-13 05:02:00,
2013-09-13 01:07:00,67.6,60.9,29.95,WNW,289,3.1,3.5,79,0.00,CLR,,0.00,WeatherDisplay:10.37,2013-09-13 05:07:00,
2013-09-13 01:12:00,67.6,61.2,29.95,West,267,0.0,1.3,80,0.00,-RA,,0.00,WeatherDisplay:10.37,2013-09-13 05:12:00,
2013-09-13 01:17:00,67.5,61.1,29.95,NW,312,2.9,3.6,80,0.00,-RA,,0.00,WeatherDisplay:10.37,2013-09-13 05:17:00,
2013-09-13 01:22:00,67.3,60.9,29.95,NW,312,0.9,2.3,80,0.00,-RA,,0.00,WeatherDisplay:10.37,2013-09-13 05:22:00,
2013-09-13 01:27:00,67.3,60.9,29.95,WNW,289,1.6,1.6,80,0.00,-RA,,0.00,WeatherDisplay:10.37,2013-09-13 05:27:00,
2013-09-13 01:32:00,66.9,60.5,29.95,NW,312,4.1,5.1,80,0.00,-RA,,0.00,WeatherDisplay:10.37,2013-09-13 05:32:00,
2013-09-13 01:37:00,66.9,60.5,29.95,NNW,335,4.5,4.6,80,0.00,-RA,,0.00,WeatherDisplay:10.37,2013-09-13 05:37:00,
2013-09-13 01:42:00,66.7,60.4,29.95,NNW,335,2.3,2.9,80,0.00,-RA,,0.00,WeatherDisplay:10.37,2013-09-13 05:42:00,
2013-09-13 01:47:00,66.7,60.0,29.94,North,357,4.2,4.5,79,0.00,-RA,,0.00,WeatherDisplay:10.37,2013-09-13 05:47:00,
2013-09-13 01:52:00,66.6,59.8,29.95,NNW,335,3.1,3.5,79,0.00,-RA,,0.00,WeatherDisplay:10.37,2013-09-13 05:52:00,
2013-09-13 01:57:00,66.4,59.7,29.95,NNW,335,0.0,2.3,79,0.00,-RA,,0.00,WeatherDisplay:10.37,2013-09-13 05:57:00,
2013-09-13 02:02:00,66.0,59.7,29.95,NW,312,3.1,3.5,80,0.00,-RA,,0.00,WeatherDisplay:10.37,2013-09-13 06:02:00,
2013-09-13 02:07:00,66.0,59.7,29.94,NNW,335,3.1,3.5,80,0.00,-RA,,0.00,WeatherDisplay:10.37,2013-09-13 06:07:00,
2013-09-13 02:12:00,65.8,59.5,29.94,SW,222,2.3,2.9,80,0.00,CLR,,0.00,WeatherDisplay:10.37,2013-09-13 06:12:00,
2013-09-13 02:17:00,65.8,59.1,29.94,NW,312,2.9,3.1,79,0.00,CLR,,0.00,WeatherDisplay:10.37,2013-09-13 06:17:00,
2013-09-13 02:22:00,65.7,59.0,29.94,WNW,289,3.8,3.8,79,0.00,CLR,,0.00,WeatherDisplay:10.37,2013-09-13 06:22:00,
2013-09-13 02:27:00,65.5,58.8,29.94,NNW,335,5.1,5.1,79,0.00,CLR,,0.00,WeatherDisplay:10.37,2013-09-13 06:27:00,
2013-09-13 02:32:00,65.3,59.0,29.94,NW,312,5.7,5.8,80,0.00,CLR,,0.00,WeatherDisplay:10.37,2013-09-13 06:32:00,
2013-09-13 02:37:00,65.1,58.8,29.94,NW,312,3.8,3.8,80,0.00,CLR,,0.00,WeatherDisplay:10.37,2013-09-13 06:37:00,
2013-09-13 02:42:00,65.1,58.8,29.94,NW,312,2.5,3.4,80,0.00,CLR,,0.00,WeatherDisplay:10.37,2013-09-13 06:42:00,
2013-09-13 02:47:00,64.9,58.3,29.94,NNW,335,3.6,4.7,79,0.00,CLR,,0.00,WeatherDisplay:10.37,2013-09-13 06:47:00,
2013-09-13 02:52:00,64.8,58.1,29.94,NW,312,6.5,6.9,79,0.00,CLR,,0.00,WeatherDisplay:10.37,2013-09-13 06:52:00,
2013-09-13 02:57:00,64.8,58.1,29.95,NNW,335,3.1,3.8,79,0.00,CLR,,0.00,WeatherDisplay:10.37,2013-09-13 06:57:00,
2013-09-13 03:02:00,64.6,57.9,29.95,NW,312,4.2,4.5,79,0.00,CLR,,0.00,WeatherDisplay:10.37,2013-09-13 07:02:00,
2013-09-13 03:07:00,64.6,57.9,29.95,NNW,335,3.1,3.5,79,0.00,CLR,,0.00,WeatherDisplay:10.37,2013-09-13 07:07:00,
2013-09-13 03:12:00,64.4,57.7,29.95,NW,312,5.1,5.1,79,0.00,CLR,,0.00,WeatherDisplay:10.37,2013-09-13 07:12:00,
2013-09-13 03:17:00,64.2,57.2,29.95,NNW,335,2.6,4.2,78,0.00,CLR,,0.00,WeatherDisplay:10.37,2013-09-13 07:17:00,
2013-09-13 03:22:00,64.0,57.0,29.95,NNE,19,5.0,5.8,78,0.00,CLR,,0.00,WeatherDisplay:10.37,2013-09-13 07:22:00,
2013-09-13 03:27:00,64.0,57.0,29.95,North,357,4.4,4.6,78,0.00,CLR,,0.00,WeatherDisplay:10.37,2013-09-13 07:27:00,
2013-09-13 03:32:00,63.7,56.7,29.95,NE,42,1.0,2.3,78,0.00,CLR,,0.00,WeatherDisplay:10.37,2013-09-13 07:32:00,
2013-09-13 03:37:00,63.7,56.7,29.95,North,357,2.5,2.5,78,0.00,CLR,,0.00,WeatherDisplay:10.37,2013-09-13 07:37:00,
2013-09-13 03:42:00,63.5,56.5,29.95,North,357,2.0,2.3,78,0.00,CLR,,0.00,WeatherDisplay:10.37,2013-09-13 07:42:00,
2013-09-13 03:47:00,63.3,56.3,29.95,NNW,335,3.0,4.7,78,0.00,CLR,,0.00,WeatherDisplay:10.37,2013-09-13 07:47:00,
2013-09-13 03:52:00,63.1,56.2,29.95,NNW,335,3.6,3.6,78,0.00,CLR,,0.00,WeatherDisplay:10.37,2013-09-13 07:52:00,
2013-09-13 03:57:00,63.1,56.2,29.95,NNE,19,4.0,4.0,78,0.00,CLR,,0.00,WeatherDisplay:10.37,2013-09-13 07:57:00,
2013-09-13 04:02:00,63.1,55.8,29.95,North,357,0.7,3.5,77,0.00,CLR,,0.00,WeatherDisplay:10.37,2013-09-13 08:02:00,
2013-09-13 04:07:00,63.1,55.8,29.95,NNW,335,5.6,5.8,77,0.00,CLR,,0.00,WeatherDisplay:10.37,2013-09-13 08:07:00,
2013-09-13 04:12:00,63.0,55.6,29.95,NNW,335,3.1,3.5,77,0.00,CLR,,0.00,WeatherDisplay:10.37,2013-09-13 08:12:00,
2013-09-13 04:17:00,62.8,55.5,29.95,NNW,335,1.5,2.2,77,0.00,CLR,,0.00,WeatherDisplay:10.37,2013-09-13 08:17:00,
2013-09-13 04:22:00,62.8,55.5,29.95,NNE,19,4.4,5.8,77,0.00,CLR,,0.00,WeatherDisplay:10.37,2013-09-13 08:22:00,
2013-09-13 04:27:00,62.4,55.1,29.95,NNW,335,4.2,4.6,77,0.00,CLR,,0.00,WeatherDisplay:10.37,2013-09-13 08:27:00,
2013-09-13 04:32:00,62.2,54.9,29.95,NNE,19,1.8,3.1,77,0.00,CLR,,0.00,WeatherDisplay:10.37,2013-09-13 08:32:00,
2013-09-13 04:37:00,62.2,54.9,29.96,NNW,335,2.5,2.5,77,0.00,CLR,,0.00,WeatherDisplay:10.37,2013-09-13 08:37:00,
2013-09-13 04:42:00,61.9,54.9,29.96,NW,312,0.0,0.0,78,0.00,CLR,,0.00,WeatherDisplay:10.37,2013-09-13 08:42:00,
2013-09-13 04:47:00,61.7,54.8,29.96,North,357,3.1,3.5,78,0.00,CLR,,0.00,WeatherDisplay:10.37,2013-09-13 08:47:00,
2013-09-13 04:52:00,61.5,54.6,29.96,North,357,2.7,2.7,78,0.00,CLR,,0.00,WeatherDisplay:10.37,2013-09-13 08:52:00,
2013-09-13 04:57:00,61.5,54.6,29.96,NW,312,0.0,0.0,78,0.00,CLR,,0.00,WeatherDisplay:10.37,2013-09-13 08:57:00,
2013-09-13 05:02:00,61.3,54.8,29.96,NNW,335,2.2,3.5,79,0.00,CLR,,0.00,WeatherDisplay:10.37,2013-09-13 09:02:00,
2013-09-13 05:07:00,61.2,54.6,29.96,North,357,3.4,3.5,79,0.00,CLR,,0.00,WeatherDisplay:10.37,2013-09-13 09:07:00,
2013-09-13 05:13:00,61.0,54.4,29.96,NNE,19,2.3,3.5,79,0.00,CLR,,0.00,WeatherDisplay:10.37,2013-09-13 09:13:00,
2013-09-13 05:18:00,61.0,54.4,29.97,NNW,335,3.8,3.8,79,0.00,CLR,,0.00,WeatherDisplay:10.37,2013-09-13 09:18:00,
2013-09-13 05:23:00,60.6,54.1,29.96,ENE,65,0.0,0.0,79,0.00,CLR,,0.00,WeatherDisplay:10.37,2013-09-13 09:23:00,
2013-09-13 05:28:00,60.6,54.1,29.96,NE,42,0.6,1.1,79,0.00,CLR,,0.00,WeatherDisplay:10.37,2013-09-13 09:28:00,
2013-09-13 05:33:00,60.4,54.2,29.97,NNW,335,3.1,3.5,80,0.00,CLR,,0.00,WeatherDisplay:10.37,2013-09-13 09:33:00,
2013-09-13 05:38:00,60.4,54.2,29.97,North,357,2.0,2.3,80,0.00,CLR,,0.00,WeatherDisplay:10.37,2013-09-13 09:38:00,
2013-09-13 05:43:00,60.1,53.9,29.96,NNW,335,3.2,4.6,80,0.00,CLR,,0.00,WeatherDisplay:10.37,2013-09-13 09:43:00,
2013-09-13 05:48:00,60.1,53.9,29.96,North,357,6.7,6.9,80,0.00,CLR,,0.00,WeatherDisplay:10.37,2013-09-13 09:48:00,
2013-09-13 05:53:00,59.9,53.7,29.97,North,357,4.5,4.6,80,0.00,CLR,,0.00,WeatherDisplay:10.37,2013-09-13 09:53:00,
2013-09-13 05:58:00,59.7,53.5,29.97,NNE,19,1.5,2.3,80,0.00,CLR,,0.00,WeatherDisplay:10.37,2013-09-13 09:58:00,
2013-09-13 06:03:00,59.5,53.4,29.97,North,357,1.8,2.3,80,0.00,CLR,,0.00,WeatherDisplay:10.37,2013-09-13 10:03:00,
2013-09-13 06:08:00,59.4,53.5,29.97,NNW,335,1.6,1.6,81,0.00,CLR,,0.00,WeatherDisplay:10.37,2013-09-13 10:08:00,
2013-09-13 06:13:00,59.0,53.2,29.97,North,357,2.7,3.5,81,0.00,CLR,,0.00,WeatherDisplay:10.37,2013-09-13 10:13:00,
2013-09-13 06:18:00,58.8,53.0,29.97,NNE,19,0.9,3.5,81,0.00,CLR,,0.00,WeatherDisplay:10.37,2013-09-13 10:18:00,
2013-09-13 06:23:00,58.8,53.3,29.97,NNE,19,0.9,1.1,82,0.00,CLR,,0.00,WeatherDisplay:10.37,2013-09-13 10:23:00,
2013-09-13 06:28:00,58.8,53.3,29.98,NNW,335,0.0,0.0,82,0.00,CLR,,0.00,WeatherDisplay:10.37,2013-09-13 10:28:00,
2013-09-13 06:33:00,58.6,53.2,29.98,North,357,4.0,4.0,82,0.00,CLR,,0.00,WeatherDisplay:10.37,2013-09-13 10:33:00,
2013-09-13 06:38:00,58.5,53.0,29.98,NNE,19,2.7,2.7,82,0.00,CLR,,0.00,WeatherDisplay:10.37,2013-09-13 10:38:00,
2013-09-13 06:43:00,58.3,53.1,29.98,NNW,335,3.0,3.6,83,0.00,CLR,,0.00,WeatherDisplay:10.37,2013-09-13 10:43:00,
2013-09-13 06:48:00,58.1,53.0,29.98,NE,42,0.0,0.0,83,0.00,CLR,,0.00,WeatherDisplay:10.37,2013-09-13 10:48:00,
2013-09-13 06:53:00,58.1,53.0,29.99,NNW,335,0.0,0.0,83,0.00,CLR,,0.00,WeatherDisplay:10.37,2013-09-13 10:53:00,
2013-09-13 06:58:00,57.9,52.8,29.99,NE,42,0.0,0.0,83,0.00,CLR,,0.00,WeatherDisplay:10.37,2013-09-13 10:58:00,
2013-09-13 07:03:00,57.7,52.6,29.99,North,357,0.0,0.0,83,0.00,CLR,,0.00,WeatherDisplay:10.37,2013-09-13 11:03:00,
2013-09-13 07:08:00,57.6,52.4,29.99,NNW,335,3.8,3.8,83,0.00,CLR,,0.00,WeatherDisplay:10.37,2013-09-13 11:08:00,
2013-09-13 07:13:00,57.6,52.8,29.99,NNW,335,2.0,2.7,84,0.00,CLR,,0.00,WeatherDisplay:10.37,2013-09-13 11:13:00,
2013-09-13 07:18:00,57.4,52.6,29.99,ENE,65,0.8,1.1,84,0.00,CLR,,0.00,WeatherDisplay:10.37,2013-09-13 11:18:00,
2013-09-13 07:23:00,57.4,52.6,30.00,East,87,0.0,0.0,84,0.00,CLR,,0.00,WeatherDisplay:10.37,2013-09-13 11:23:00,
2013-09-13 07:28:00,57.4,52.6,30.00,ENE,65,0.0,0.0,84,0.00,CLR,,0.00,WeatherDisplay:10.37,2013-09-13 11:28:00,
2013-09-13 07:33:00,57.6,52.8,30.00,NE,42,0.0,0.0,84,0.00,CLR,,0.00,WeatherDisplay:10.37,2013-09-13 11:33:00,
2013-09-13 07:38:00,57.6,52.8,30.00,NNE,19,0.0,0.0,84,0.00,CLR,,0.00,WeatherDisplay:10.37,2013-09-13 11:38:00,
2013-09-13 07:43:00,57.4,52.6,30.00,NNE,19,0.0,0.0,84,0.00,CLR,,0.00,WeatherDisplay:10.37,2013-09-13 11:43:00,
2013-09-13 07:48:00,57.4,52.6,30.00,NE,42,2.0,2.3,84,0.00,CLR,,0.00,WeatherDisplay:10.37,2013-09-13 11:48:00,
2013-09-13 07:53:00,57.6,52.8,30.01,North,357,0.0,0.0,84,0.00,CLR,,0.00,WeatherDisplay:10.37,2013-09-13 11:53:00,
2013-09-13 07:58:00,57.7,52.9,30.01,NNE,19,5.0,6.9,84,0.00,CLR,,0.00,WeatherDisplay:10.37,2013-09-13 11:58:00,
2013-09-13 08:03:00,57.7,52.9,30.01,NW,312,1.1,1.1,84,0.00,CLR,,0.00,WeatherDisplay:10.37,2013-09-13 12:03:00,
2013-09-13 08:08:00,57.7,52.9,30.01,NE,42,0.0,0.0,84,0.00,CLR,,0.00,WeatherDisplay:10.37,2013-09-13 12:08:00,
2013-09-13 08:13:00,57.9,53.1,30.01,NE,42,0.0,0.0,84,0.00,CLR,,0.00,WeatherDisplay:10.37,2013-09-13 12:13:00,
2013-09-13 08:18:00,57.9,53.1,30.01,North,357,2.1,2.3,84,0.00,CLR,,0.00,WeatherDisplay:10.37,2013-09-13 12:18:00,
2013-09-13 08:23:00,58.1,53.3,30.01,ENE,65,0.0,0.0,84,0.00,CLR,,0.00,WeatherDisplay:10.37,2013-09-13 12:23:00,
2013-09-13 08:28:00,58.6,53.5,30.02,NE,42,1.5,1.6,83,0.00,CLR,,0.00,WeatherDisplay:10.37,2013-09-13 12:28:00,
2013-09-13 08:33:00,58.6,53.5,30.02,NE,42,0.0,10.4,83,0.00,CLR,,0.00,WeatherDisplay:10.37,2013-09-13 12:33:00,
2013-09-13 08:38:00,58.8,53.7,30.02,ESE,109,0.0,0.0,83,0.00,CLR,,0.00,WeatherDisplay:10.37,2013-09-13 12:38:00,
2013-09-13 08:43:00,58.8,53.3,30.01,East,87,2.9,3.5,82,0.00,CLR,,0.00,WeatherDisplay:10.37,2013-09-13 12:43:00,
2013-09-13 08:48:00,59.2,53.7,30.02,NNW,335,1.6,3.5,82,0.00,CLR,,0.00,WeatherDisplay:10.37,2013-09-13 12:48:00,
2013-09-13 08:53:00,59.5,54.0,30.02,East,87,0.0,0.0,82,0.00,CLR,,0.00,WeatherDisplay:10.37,2013-09-13 12:53:00,
2013-09-13 08:58:00,59.9,54.1,30.02,ENE,65,1.0,2.3,81,0.00,CLR,,0.00,WeatherDisplay:10.37,2013-09-13 12:58:00,
2013-09-13 09:03:00,60.4,54.2,30.02,North,357,3.1,3.5,80,0.00,CLR,,0.00,WeatherDisplay:10.37,2013-09-13 13:03:00,
2013-09-13 09:08:00,60.6,54.4,30.02,NE,42,0.0,0.0,80,0.00,CLR,,0.00,WeatherDisplay:10.37,2013-09-13 13:08:00,
2013-09-13 09:13:00,61.2,54.6,30.02,NE,42,4.7,4.7,79,0.00,CLR,,0.00,WeatherDisplay:10.37,2013-09-13 13:13:00,
2013-09-13 09:18:00,61.5,54.9,30.02,NW,312,3.1,3.5,79,0.00,CLR,,0.00,WeatherDisplay:10.37,2013-09-13 13:18:00,
2013-09-13 09:23:00,61.9,54.6,30.02,North,357,2.9,3.5,77,0.00,CLR,,0.00,WeatherDisplay:10.37,2013-09-13 13:23:00,
2013-09-13 09:28:00,61.9,54.2,30.02,ENE,65,3.2,4.6,76,0.00,CLR,,0.00,WeatherDisplay:10.37,2013-09-13 13:28:00,
2013-09-13 09:33:00,62.4,54.8,30.02,NE,42,0.0,4.6,76,0.00,CLR,,0.00,WeatherDisplay:10.37,2013-09-13 13:33:00,
2013-09-13 09:38:00,62.8,54.7,30.02,WSW,245,3.4,3.5,75,0.00,CLR,,0.00,WeatherDisplay:10.37,2013-09-13 13:38:00,
2013-09-13 09:43:00,63.7,55.2,30.02,ENE,65,2.3,3.5,74,0.00,CLR,,0.00,WeatherDisplay:10.37,2013-09-13 13:43:00,
2013-09-13 09:48:00,64.0,55.2,30.02,South,177,1.6,1.6,73,0.00,CLR,,0.00,WeatherDisplay:10.37,2013-09-13 13:48:00,
2013-09-13 09:53:00,64.2,55.0,30.02,ENE,65,2.5,2.9,72,0.00,CLR,,0.00,WeatherDisplay:10.37,2013-09-13 13:53:00,
2013-09-13 09:58:00,64.8,55.9,30.02,North,357,2.1,5.8,73,0.00,CLR,,0.00,WeatherDisplay:10.37,2013-09-13 13:58:00,
2013-09-13 10:03:00,65.1,55.1,30.02,ENE,65,0.0,0.0,70,0.00,CLR,,0.00,WeatherDisplay:10.37,2013-09-13 14:03:00,
2013-09-13 10:08:00,65.5,54.6,30.02,East,87,2.0,2.3,68,0.00,FEW,,0.00,WeatherDisplay:10.37,2013-09-13 14:08:00,
2013-09-13 10:13:00,65.5,53.8,30.02,NNE,19,4.0,4.6,66,0.00,FEW,,0.00,WeatherDisplay:10.37,2013-09-13 14:13:00,
2013-09-13 10:18:00,65.5,53.4,30.02,NNE,19,2.9,3.5,65,0.00,FEW,,0.00,WeatherDisplay:10.37,2013-09-13 14:18:00,
2013-09-13 10:23:00,65.8,53.7,30.03,ESE,109,6.9,6.9,65,0.00,FEW,,0.00,WeatherDisplay:10.37,2013-09-13 14:23:00,
2013-09-13 10:28:00,66.0,53.9,30.03,NNE,19,2.7,3.5,65,0.00,FEW,,0.00,WeatherDisplay:10.37,2013-09-13 14:28:00,
2013-09-13 10:33:00,66.2,54.1,30.03,ESE,109,6.3,6.3,65,0.00,FEW,,0.00,WeatherDisplay:10.37,2013-09-13 14:33:00,
2013-09-13 10:38:00,66.6,53.6,30.03,NE,42,6.5,6.9,63,0.00,FEW,,0.00,WeatherDisplay:10.37,2013-09-13 14:38:00,
2013-09-13 10:43:00,66.4,52.1,30.03,NNE,19,5.0,5.8,60,0.00,FEW,,0.00,WeatherDisplay:10.37,2013-09-13 14:43:00,
2013-09-13 10:48:00,66.4,52.1,30.03,NNW,335,4.2,6.9,60,0.00,FEW,,0.00,WeatherDisplay:10.37,2013-09-13 14:48:00,
2013-09-13 10:53:00,66.4,52.1,30.04,North,357,10.3,10.4,60,0.00,FEW,,0.00,WeatherDisplay:10.37,2013-09-13 14:53:00,
2013-09-13 10:58:00,66.6,52.2,30.03,NE,42,2.7,3.6,60,0.00,FEW,,0.00,WeatherDisplay:10.37,2013-09-13 14:58:00,
2013-09-13 11:03:00,66.7,52.4,30.03,NE,42,7.2,7.2,60,0.00,FEW,,0.00,WeatherDisplay:10.37,2013-09-13 15:03:00,
2013-09-13 11:08:00,67.1,52.3,30.03,NNW,335,4.2,4.6,59,0.00,FEW,,0.00,WeatherDisplay:10.37,2013-09-13 15:08:00,
2013-09-13 11:13:00,67.3,52.5,30.03,East,87,3.7,9.2,59,0.00,FEW,,0.00,WeatherDisplay:10.37,2013-09-13 15:13:00,
2013-09-13 11:18:00,67.8,53.0,30.03,East,87,11.2,11.5,59,0.00,FEW,,0.00,WeatherDisplay:10.37,2013-09-13 15:18:00,
2013-09-13 11:23:00,67.8,53.0,30.04,North,357,6.9,6.9,59,0.00,FEW,,0.00,WeatherDisplay:10.37,2013-09-13 15:23:00,
2013-09-13 11:28:00,67.8,52.5,30.04,NNW,335,9.5,10.4,58,0.00,FEW,,0.00,WeatherDisplay:10.37,2013-09-13 15:28:00,
2013-09-13 11:33:00,67.8,52.0,30.04,NE,42,8.3,8.3,57,0.00,FEW,,0.00,WeatherDisplay:10.37,2013-09-13 15:33:00,
2013-09-13 11:38:00,67.6,52.3,30.04,North,357,15.6,15.6,58,0.00,FEW,,0.00,WeatherDisplay:10.37,2013-09-13 15:38:00,
2013-09-13 11:43:00,67.8,53.0,30.04,NNW,335,1.6,1.6,59,0.00,FEW,,0.00,WeatherDisplay:10.37,2013-09-13 15:43:00,
2013-09-13 11:48:00,68.2,52.8,30.04,NW,312,1.5,4.6,58,0.00,FEW,,0.00,WeatherDisplay:10.37,2013-09-13 15:48:00,
2013-09-13 11:53:00,68.4,53.9,30.04,NNW,335,5.1,5.1,60,0.00,FEW,,0.00,WeatherDisplay:10.37,2013-09-13 15:53:00,
2013-09-13 11:58:00,68.9,53.0,30.04,South,177,3.0,3.5,57,0.00,FEW,,0.00,WeatherDisplay:10.37,2013-09-13 15:58:00,
2013-09-13 12:03:00,68.9,53.0,30.04,South,177,3.0,3.5,57,0.00,FEW,,0.00,WeatherDisplay:10.37,2013-09-13 16:03:00,
2013-09-13 12:08:00,68.9,53.0,30.04,NW,312,8.3,8.3,57,0.00,SCT,,0.00,WeatherDisplay:10.37,2013-09-13 16:08:00,
2013-09-13 12:13:00,68.9,53.0,30.04,NW,312,8.3,8.3,57,0.00,SCT,,0.00,WeatherDisplay:10.37,2013-09-13 16:13:00,
2013-09-13 12:18:00,68.9,52.1,30.04,North,357,8.1,8.1,55,0.00,SCT,,0.00,WeatherDisplay:10.37,2013-09-13 16:18:00,
2013-09-13 12:23:00,69.1,52.2,30.03,North,357,8.1,8.1,55,0.00,SCT,,0.00,WeatherDisplay:10.37,2013-09-13 16:23:00,
2013-09-13 12:28:00,68.7,51.9,30.04,NE,42,7.8,10.4,55,0.00,SCT,,0.00,WeatherDisplay:10.37,2013-09-13 16:28:00,
2013-09-13 12:33:00,68.5,51.7,30.03,NNW,335,8.7,12.7,55,0.00,SCT,,0.00,WeatherDisplay:10.37,2013-09-13 16:33:00,
2013-09-13 12:38:00,68.9,52.1,30.03,NE,42,2.0,2.3,55,0.00,SCT,,0.00,WeatherDisplay:10.37,2013-09-13 16:38:00,
2013-09-13 12:43:00,69.8,53.4,30.03,East,87,4.2,4.6,56,0.00,SCT,,0.00,WeatherDisplay:10.37,2013-09-13 16:43:00,
2013-09-13 12:48:00,70.2,52.7,30.03,WNW,289,9.2,9.2,54,0.00,SCT,,0.00,WeatherDisplay:10.37,2013-09-13 16:48:00,
2013-09-13 12:53:00,69.1,51.7,30.02,NNW,335,10.3,10.4,54,0.00,SCT,,0.00,WeatherDisplay:10.37,2013-09-13 16:53:00,
2013-09-13 12:58:00,69.4,52.6,30.03,ESE,109,6.1,9.2,55,0.00,SCT,,0.00,WeatherDisplay:10.37,2013-09-13 16:58:00,
2013-09-13 13:03:00,69.6,52.2,30.03,East,87,3.8,3.8,54,0.00,SCT,,0.00,WeatherDisplay:10.37,2013-09-13 17:03:00,
2013-09-13 13:08:00,70.0,53.1,30.02,NNW,335,6.3,6.3,55,0.00,BKN,,0.00,WeatherDisplay:10.37,2013-09-13 17:08:00,
2013-09-13 13:13:00,70.2,52.7,30.02,NNE,19,9.1,9.4,54,0.00,BKN,,0.00,WeatherDisplay:10.37,2013-09-13 17:13:00,
2013-09-13 13:18:00,70.0,52.1,30.02,NW,312,8.3,8.3,53,0.00,BKN,,0.00,WeatherDisplay:10.37,2013-09-13 17:18:00,
2013-09-13 13:23:00,70.3,52.4,30.02,NNW,335,7.6,8.1,53,0.00,BKN,,0.00,WeatherDisplay:10.37,2013-09-13 17:23:00,
2013-09-13 13:28:00,70.5,52.0,30.02,East,87,5.5,6.9,52,0.00,BKN,,0.00,WeatherDisplay:10.37,2013-09-13 17:28:00,
2013-09-13 13:33:00,70.7,52.2,30.01,NW,312,8.0,11.5,52,0.00,BKN,,0.00,WeatherDisplay:10.37,2013-09-13 17:33:00,
2013-09-13 13:38:00,70.5,52.0,30.02,North,357,4.2,6.9,52,0.00,BKN,,0.00,WeatherDisplay:10.37,2013-09-13 17:38:00,
2013-09-13 13:43:00,70.9,53.4,30.01,North,357,1.3,1.3,54,0.00,BKN,,0.00,WeatherDisplay:10.37,2013-09-13 17:43:00,
2013-09-13 13:48:00,71.2,52.7,30.01,North,357,8.5,8.5,52,0.00,BKN,,0.00,WeatherDisplay:10.37,2013-09-13 17:48:00,
2013-09-13 13:53:00,71.2,52.7,30.01,North,357,3.6,3.6,52,0.00,BKN,,0.00,WeatherDisplay:10.37,2013-09-13 17:53:00,
2013-09-13 13:58:00,71.2,53.2,30.01,NE,42,4.4,4.7,53,0.00,BKN,,0.00,WeatherDisplay:10.37,2013-09-13 17:58:00,
2013-09-13 14:03:00,71.2,52.7,30.01,NNE,19,5.1,5.1,52,0.00,BKN,,0.00,WeatherDisplay:10.37,2013-09-13 18:03:00,
2013-09-13 14:08:00,71.1,52.0,30.01,North,357,5.1,9.6,51,0.00,FEW,,0.00,WeatherDisplay:10.37,2013-09-13 18:08:00,
2013-09-13 14:13:00,70.0,51.0,30.00,North,357,2.7,3.5,51,0.00,FEW,,0.00,WeatherDisplay:10.37,2013-09-13 18:13:00,
2013-09-13 14:18:00,70.3,52.4,30.00,NNW,335,5.7,5.7,53,0.00,FEW,,0.00,WeatherDisplay:10.37,2013-09-13 18:18:00,
2013-09-13 14:23:00,71.2,52.2,30.00,NNE,19,7.1,7.1,51,0.00,FEW,,0.00,WeatherDisplay:10.37,2013-09-13 18:23:00,
2013-09-13 14:28:00,70.9,51.3,30.00,NNW,335,9.8,10.4,50,0.00,FEW,,0.00,WeatherDisplay:10.37,2013-09-13 18:28:00,
2013-09-13 14:33:00,70.7,50.6,30.00,NW,312,11.8,11.8,49,0.00,FEW,,0.00,WeatherDisplay:10.37,2013-09-13 18:33:00,
2013-09-13 14:38:00,70.9,51.3,30.00,North,357,6.0,6.0,50,0.00,FEW,,0.00,WeatherDisplay:10.37,2013-09-13 18:38:00,
2013-09-13 14:43:00,71.4,51.3,30.00,North,357,12.0,14.1,49,0.00,FEW,,0.00,WeatherDisplay:10.37,2013-09-13 18:43:00,
2013-09-13 14:48:00,71.2,51.1,30.00,NNW,335,5.2,11.4,49,0.00,FEW,,0.00,WeatherDisplay:10.37,2013-09-13 18:48:00,
2013-09-13 14:53:00,70.7,50.6,30.00,WNW,289,4.5,5.8,49,0.00,FEW,,0.00,WeatherDisplay:10.37,2013-09-13 18:53:00,
2013-09-13 14:58:00,70.7,50.6,29.99,North,357,10.0,10.0,49,0.00,FEW,,0.00,WeatherDisplay:10.37,2013-09-13 18:58:00,
2013-09-13 15:03:00,70.9,50.2,29.99,NNE,19,8.0,8.1,48,0.00,FEW,,0.00,WeatherDisplay:10.37,2013-09-13 19:03:00,
2013-09-13 15:08:00,70.9,50.2,29.99,NNW,335,8.1,8.1,48,0.00,SCT,,0.00,WeatherDisplay:10.37,2013-09-13 19:08:00,
2013-09-13 15:13:00,70.3,49.7,30.00,North,357,7.8,16.1,48,0.00,SCT,,0.00,WeatherDisplay:10.37,2013-09-13 19:13:00,
2013-09-13 15:18:00,70.0,49.9,30.00,NNW,335,4.5,4.6,49,0.00,SCT,,0.00,WeatherDisplay:10.37,2013-09-13 19:18:00,
2013-09-13 15:23:00,70.2,50.1,30.00,NNW,335,4.5,5.6,49,0.00,SCT,,0.00,WeatherDisplay:10.37,2013-09-13 19:23:00,
2013-09-13 15:28:00,70.5,49.9,30.00,West,267,11.2,11.5,48,0.00,SCT,,0.00,WeatherDisplay:10.37,2013-09-13 19:28:00,
2013-09-13 15:33:00,70.9,50.2,29.99,NNW,335,7.8,8.1,48,0.00,SCT,,0.00,WeatherDisplay:10.37,2013-09-13 19:33:00,
2013-09-13 15:38:00,71.2,50.0,29.99,NNW,335,6.7,8.1,47,0.00,SCT,,0.00,WeatherDisplay:10.37,2013-09-13 19:38:00,
2013-09-13 15:43:00,71.2,49.4,29.99,NNW,335,4.7,4.7,46,0.00,SCT,,0.00,WeatherDisplay:10.37,2013-09-13 19:43:00,
2013-09-13 15:48:00,71.2,49.4,29.99,NNE,19,12.3,12.7,46,0.00,SCT,,0.00,WeatherDisplay:10.37,2013-09-13 19:48:00,
2013-09-13 15:53:00,70.5,49.3,29.99,North,357,1.8,4.7,47,0.00,SCT,,0.00,WeatherDisplay:10.37,2013-09-13 19:53:00,
2013-09-13 15:58:00,70.9,49.1,29.99,North,357,8.9,9.2,46,0.00,SCT,,0.00,WeatherDisplay:10.37,2013-09-13 19:58:00,
2013-09-13 16:03:00,71.4,49.0,29.99,NNE,19,1.1,2.9,45,0.00,SCT,,0.00,WeatherDisplay:10.37,2013-09-13 20:03:00,
2013-09-13 16:08:00,71.4,50.1,29.99,NE,42,5.1,5.1,47,0.00,BKN,,0.00,WeatherDisplay:10.37,2013-09-13 20:08:00,
2013-09-13 16:13:00,71.2,49.4,29.99,NNW,335,12.3,12.7,46,0.00,BKN,,0.00,WeatherDisplay:10.37,2013-09-13 20:13:00,
2013-09-13 16:18:00,71.2,49.4,29.99,ENE,65,3.6,3.6,46,0.00,BKN,,0.00,WeatherDisplay:10.37,2013-09-13 20:18:00,
2013-09-13 16:23:00,70.9,48.5,29.99,North,357,6.8,11.5,45,0.00,BKN,,0.00,WeatherDisplay:10.37,2013-09-13 20:23:00,
2013-09-13 16:28:00,70.5,48.7,30.00,NNW,335,4.7,4.7,46,0.00,BKN,,0.00,WeatherDisplay:10.37,2013-09-13 20:28:00,
2013-09-13 16:33:00,70.9,49.1,30.00,North,357,0.0,0.0,46,0.00,BKN,,0.00,WeatherDisplay:10.37,2013-09-13 20:33:00,
2013-09-13 16:38:00,70.5,48.7,30.00,NNW,335,3.7,4.0,46,0.00,BKN,,0.00,WeatherDisplay:10.37,2013-09-13 20:38:00,
2013-09-13 16:43:00,70.3,49.7,30.00,North,357,6.5,6.9,48,0.00,BKN,,0.00,WeatherDisplay:10.37,2013-09-13 20:43:00,
2013-09-13 16:48:00,70.0,49.4,30.00,NNW,335,3.1,3.5,48,0.00,BKN,,0.00,WeatherDisplay:10.37,2013-09-13 20:48:00,
2013-09-13 16:53:00,70.0,48.8,29.99,NNW,335,4.6,6.9,47,0.00,BKN,,0.00,WeatherDisplay:10.37,2013-09-13 20:53:00,
2013-09-13 16:58:00,70.2,49.5,30.00,North,357,5.0,10.4,48,0.00,BKN,,0.00,WeatherDisplay:10.37,2013-09-13 20:58:00,
2013-09-13 17:03:00,70.2,48.4,29.99,North,357,11.4,11.5,46,0.00,BKN,,0.00,WeatherDisplay:10.37,2013-09-13 21:03:00,
2013-09-13 17:08:00,69.6,47.9,29.99,NE,42,3.6,15.0,46,0.00,SCT,,0.00,WeatherDisplay:10.37,2013-09-13 21:08:00,
2013-09-13 17:13:00,69.6,48.5,29.99,North,357,2.4,3.4,47,0.00,SCT,,0.00,WeatherDisplay:10.37,2013-09-13 21:13:00,
2013-09-13 17:18:00,70.0,48.8,29.99,NNW,335,1.8,3.5,47,0.00,SCT,,0.00,WeatherDisplay:10.37,2013-09-13 21:18:00,
2013-09-13 17:23:00,70.5,48.7,29.99,ENE,65,3.5,4.6,46,0.00,SCT,,0.00,WeatherDisplay:10.37,2013-09-13 21:23:00,
2013-09-13 17:28:00,70.7,48.9,29.99,NNE,19,0.0,3.5,46,0.00,SCT,,0.00,WeatherDisplay:10.37,2013-09-13 21:28:00,
2013-09-13 17:33:00,70.3,48.6,29.99,North,357,7.4,9.2,46,0.00,SCT,,0.00,WeatherDisplay:10.37,2013-09-13 21:33:00,
2013-09-13 17:38:00,70.2,48.4,29.99,NNE,19,3.9,4.6,46,0.00,SCT,,0.00,WeatherDisplay:10.37,2013-09-13 21:38:00,
2013-09-13 17:43:00,69.4,47.8,29.99,ENE,65,0.0,1.1,46,0.00,SCT,,0.00,WeatherDisplay:10.37,2013-09-13 21:43:00,
2013-09-13 17:48:00,68.5,48.6,29.99,ESE,109,1.9,2.3,49,0.00,SCT,,0.00,WeatherDisplay:10.37,2013-09-13 21:48:00,
2013-09-13 17:53:00,68.2,48.3,29.99,SE,132,2.7,3.5,49,0.00,SCT,,0.00,WeatherDisplay:10.37,2013-09-13 21:53:00,
2013-09-13 17:58:00,67.8,48.0,29.99,NNW,335,3.6,3.6,49,0.00,SCT,,0.00,WeatherDisplay:10.37,2013-09-13 21:58:00,
2013-09-13 18:03:00,68.2,48.3,29.99,ENE,65,2.9,4.7,49,0.00,SCT,,0.00,WeatherDisplay:10.37,2013-09-13 22:03:00,
2013-09-13 18:08:00,68.4,48.5,29.99,North,357,0.0,2.3,49,0.00,FEW,,0.00,WeatherDisplay:10.37,2013-09-13 22:08:00,
2013-09-13 18:13:00,68.7,48.8,30.00,North,357,4.5,4.6,49,0.00,FEW,,0.00,WeatherDisplay:10.37,2013-09-13 22:13:00,
2013-09-13 18:18:00,68.5,48.1,30.00,South,177,1.6,1.6,48,0.00,FEW,,0.00,WeatherDisplay:10.37,2013-09-13 22:18:00,
2013-09-13 18:23:00,68.5,48.6,30.00,NE,42,4.5,4.6,49,0.00,FEW,,0.00,WeatherDisplay:10.37,2013-09-13 22:23:00,
2013-09-13 18:28:00,68.5,48.6,30.00,North,357,3.8,8.1,49,0.00,FEW,,0.00,WeatherDisplay:10.37,2013-09-13 22:28:00,
2013-09-13 18:33:00,68.4,48.5,30.00,NW,312,2.6,5.1,49,0.00,FEW,,0.00,WeatherDisplay:10.37,2013-09-13 22:33:00,
2013-09-13 18:38:00,68.2,48.8,30.00,North,357,2.2,2.3,50,0.00,FEW,,0.00,WeatherDisplay:10.37,2013-09-13 22:38:00,
2013-09-13 18:43:00,67.6,48.3,30.00,North,357,3.0,3.5,50,0.00,FEW,,0.00,WeatherDisplay:10.37,2013-09-13 22:43:00,
2013-09-13 18:48:00,66.9,48.2,30.00,NE,42,1.1,3.5,51,0.00,FEW,,0.00,WeatherDisplay:10.37,2013-09-13 22:48:00,
2013-09-13 18:53:00,66.7,48.5,30.00,NW,312,2.2,2.3,52,0.00,FEW,,0.00,WeatherDisplay:10.37,2013-09-13 22:53:00,
2013-09-13 18:58:00,66.6,48.4,30.00,NE,42,1.3,5.8,52,0.00,FEW,,0.00,WeatherDisplay:10.37,2013-09-13 22:58:00,
2013-09-13 19:03:00,66.0,48.4,30.00,ESE,109,0.0,0.0,53,0.00,FEW,,0.00,WeatherDisplay:10.37,2013-09-13 23:03:00,
2013-09-13 19:08:00,66.0,48.4,30.00,East,87,0.2,2.3,53,0.00,CLR,,0.00,WeatherDisplay:10.37,2013-09-13 23:08:00,
2013-09-13 19:13:00,65.8,48.7,30.00,ENE,65,0.9,1.1,54,0.00,CLR,,0.00,WeatherDisplay:10.37,2013-09-13 23:13:00,
2013-09-13 19:18:00,65.5,48.4,30.00,NE,42,2.2,2.3,54,0.00,CLR,,0.00,WeatherDisplay:10.37,2013-09-13 23:18:00,
2013-09-13 19:23:00,65.1,48.1,30.00,East,87,0.7,2.3,54,0.00,CLR,,0.00,WeatherDisplay:10.37,2013-09-13 23:23:00,
2013-09-13 19:28:00,64.9,47.9,30.00,ENE,65,0.7,1.1,54,0.00,CLR,,0.00,WeatherDisplay:10.37,2013-09-13 23:28:00,
2013-09-13 19:33:00,64.2,47.2,30.00,NE,42,0.0,0.0,54,0.00,CLR,,0.00,WeatherDisplay:10.37,2013-09-13 23:33:00,
2013-09-13 19:38:00,64.0,47.5,30.00,NE,42,0.0,0.0,55,0.00,CLR,,0.00,WeatherDisplay:10.37,2013-09-13 23:38:00,
2013-09-13 19:43:00,63.5,47.0,30.00,NNE,19,0.0,0.0,55,0.00,CLR,,0.00,WeatherDisplay:10.37,2013-09-13 23:43:00,
2013-09-13 19:48:00,63.0,47.0,30.00,North,357,0.0,0.0,56,0.00,CLR,,0.00,WeatherDisplay:10.37,2013-09-13 23:48:00,
2013-09-13 19:53:00,62.4,46.5,30.00,ENE,65,0.0,0.0,56,0.00,CLR,,0.00,WeatherDisplay:10.37,2013-09-13 23:53:00,
2013-09-13 19:58:00,62.2,46.8,30.00,East,87,0.0,2.3,57,0.00,CLR,,0.00,WeatherDisplay:10.37,2013-09-13 23:58:00,
2013-09-13 20:03:00,61.5,46.6,30.00,North,357,0.0,0.0,58,0.00,CLR,,0.00,WeatherDisplay:10.37,2013-09-14 00:03:00,
2013-09-13 20:08:00,61.3,46.9,30.00,North,357,0.0,0.0,59,0.00,CLR,,0.00,WeatherDisplay:10.37,2013-09-14 00:08:00,
2013-09-13 20:13:00,61.0,47.0,30.00,NNW,335,0.0,0.0,60,0.00,CLR,,0.00,WeatherDisplay:10.37,2013-09-14 00:13:00,
2013-09-13 20:18:00,60.4,46.5,30.01,NNW,335,0.0,0.0,60,0.00,CLR,,0.00,WeatherDisplay:10.37,2013-09-14 00:18:00,
2013-09-13 20:23:00,60.1,46.6,30.01,NW,312,0.0,0.0,61,0.00,CLR,,0.00,WeatherDisplay:10.37,2013-09-14 00:23:00,
2013-09-13 20:28:00,59.9,46.8,30.01,North,357,0.0,0.0,62,0.00,CLR,,0.00,WeatherDisplay:10.37,2013-09-14 00:28:00,
2013-09-13 20:33:00,59.4,46.8,30.01,NW,312,0.0,0.0,63,0.00,CLR,,0.00,WeatherDisplay:10.37,2013-09-14 00:33:00,
2013-09-13 20:38:00,58.8,46.2,30.02,ENE,65,0.0,0.0,63,0.00,CLR,,0.00,WeatherDisplay:10.37,2013-09-14 00:38:00,
2013-09-13 20:43:00,58.8,46.7,30.01,North,357,0.0,0.0,64,0.00,CLR,,0.00,WeatherDisplay:10.37,2013-09-14 00:43:00,
2013-09-13 20:48:00,58.8,46.7,30.02,NNE,19,0.0,0.0,64,0.00,CLR,,0.00,WeatherDisplay:10.37,2013-09-14 00:48:00,
2013-09-13 20:53:00,58.5,46.3,30.02,NNE,19,0.0,0.0,64,0.00,CLR,,0.00,WeatherDisplay:10.37,2013-09-14 00:53:00,
2013-09-13 20:58:00,58.3,46.2,30.02,NNE,19,0.0,0.0,64,0.00,CLR,,0.00,WeatherDisplay:10.37,2013-09-14 00:58:00,
2013-09-13 21:03:00,57.9,45.8,30.02,NNE,19,0.0,0.0,64,0.00,CLR,,0.00,WeatherDisplay:10.37,2013-09-14 01:03:00,
2013-09-13 21:08:00,57.9,46.2,30.02,NNE,19,0.0,0.0,65,0.00,CLR,,0.00,WeatherDisplay:10.37,2013-09-14 01:08:00,
2013-09-13 21:13:00,57.7,46.0,30.02,NNE,19,0.0,0.0,65,0.00,CLR,,0.00,WeatherDisplay:10.37,2013-09-14 01:13:00,
2013-09-13 21:18:00,57.7,46.0,30.02,North,357,0.0,0.0,65,0.00,CLR,,0.00,WeatherDisplay:10.37,2013-09-14 01:18:00,
2013-09-13 21:23:00,57.6,45.9,30.02,NNE,19,0.0,0.0,65,0.00,CLR,,0.00,WeatherDisplay:10.37,2013-09-14 01:23:00,
2013-09-13 21:28:00,57.6,45.9,30.02,NNE,19,0.0,0.0,65,0.00,CLR,,0.00,WeatherDisplay:10.37,2013-09-14 01:28:00,
2013-09-13 21:33:00,57.2,45.5,30.02,North,357,2.7,2.7,65,0.00,CLR,,0.00,WeatherDisplay:10.37,2013-09-14 01:33:00,
2013-09-13 21:38:00,57.2,45.5,30.02,North,357,0.0,0.0,65,0.00,CLR,,0.00,WeatherDisplay:10.37,2013-09-14 01:38:00,
2013-09-13 21:43:00,57.0,45.8,30.02,NE,42,0.0,0.0,66,0.00,CLR,,0.00,WeatherDisplay:10.37,2013-09-14 01:43:00,
2013-09-13 21:48:00,57.0,45.8,30.02,NNW,335,0.0,0.0,66,0.00,CLR,,0.00,WeatherDisplay:10.37,2013-09-14 01:48:00,
2013-09-13 21:53:00,56.8,45.6,30.02,NNW,335,0.0,0.0,66,0.00,CLR,,0.00,WeatherDisplay:10.37,2013-09-14 01:53:00,
2013-09-13 21:58:00,56.8,46.0,30.02,NE,42,1.6,1.6,67,0.00,CLR,,0.00,WeatherDisplay:10.37,2013-09-14 01:58:00,
2013-09-13 22:03:00,56.5,45.7,30.04,ENE,65,0.0,0.0,67,0.00,CLR,,0.00,WeatherDisplay:10.37,2013-09-14 02:03:00,
2013-09-13 22:08:00,56.5,45.7,30.04,East,87,0.0,0.0,67,0.00,CLR,,0.00,WeatherDisplay:10.37,2013-09-14 02:08:00,
2013-09-13 22:13:00,56.1,45.7,30.04,ENE,65,0.0,0.0,68,0.00,CLR,,0.00,WeatherDisplay:10.37,2013-09-14 02:13:00,
2013-09-13 22:18:00,55.9,45.5,30.04,ENE,65,0.0,0.0,68,0.00,CLR,,0.00,WeatherDisplay:10.37,2013-09-14 02:18:00,
2013-09-13 22:23:00,55.8,45.7,30.04,NE,42,0.0,0.0,69,0.00,CLR,,0.00,WeatherDisplay:10.37,2013-09-14 02:23:00,
2013-09-13 22:28:00,55.4,45.4,30.04,NE,42,0.0,0.0,69,0.00,CLR,,0.00,WeatherDisplay:10.37,2013-09-14 02:28:00,
2013-09-13 22:33:00,55.0,45.1,30.04,North,357,0.0,0.0,69,0.00,CLR,,0.00,WeatherDisplay:10.37,2013-09-14 02:33:00,
2013-09-13 22:38:00,54.9,45.3,30.04,NNE,19,0.0,0.0,70,0.00,CLR,,0.00,WeatherDisplay:10.37,2013-09-14 02:38:00,
2013-09-13 22:43:00,54.3,44.7,30.04,NNE,19,0.0,0.0,70,0.00,CLR,,0.00,WeatherDisplay:10.37,2013-09-14 02:43:00,
2013-09-13 22:48:00,54.1,44.9,30.04,North,357,0.0,0.0,71,0.00,CLR,,0.00,WeatherDisplay:10.37,2013-09-14 02:48:00,
2013-09-13 22:53:00,54.0,45.1,30.05,NNE,19,0.0,0.0,72,0.00,CLR,,0.00,WeatherDisplay:10.37,2013-09-14 02:53:00,
2013-09-13 22:58:00,53.8,45.3,30.05,North,357,0.0,0.0,73,0.00,CLR,,0.00,WeatherDisplay:10.37,2013-09-14 02:58:00,
2013-09-13 23:03:00,53.4,45.0,30.05,ENE,65,0.0,0.0,73,0.00,CLR,,0.00,WeatherDisplay:10.37,2013-09-14 03:03:00,
2013-09-13 23:08:00,53.2,45.2,30.05,NNE,19,0.0,0.0,74,0.00,CLR,,0.00,WeatherDisplay:10.37,2013-09-14 03:08:00,
2013-09-13 23:13:00,53.2,45.2,30.05,NNE,19,0.0,0.0,74,0.00,CLR,,0.00,WeatherDisplay:10.37,2013-09-14 03:13:00,
2013-09-13 23:18:00,53.2,45.2,30.04,ESE,109,0.0,0.0,74,0.00,CLR,,0.00,WeatherDisplay:10.37,2013-09-14 03:18:00,
2013-09-13 23:23:00,52.7,44.6,30.04,ENE,65,0.0,0.0,74,0.00,CLR,,0.00,WeatherDisplay:10.37,2013-09-14 03:23:00,
2013-09-13 23:28:00,52.5,44.8,30.04,ENE,65,0.0,0.0,75,0.00,CLR,,0.00,WeatherDisplay:10.37,2013-09-14 03:28:00,
2013-09-13 23:33:00,52.3,44.6,30.05,NE,42,0.0,0.0,75,0.00,CLR,,0.00,WeatherDisplay:10.37,2013-09-14 03:33:00,
2013-09-13 23:38:00,52.5,44.8,30.04,ENE,65,0.0,0.0,75,0.00,CLR,,0.00,WeatherDisplay:10.37,2013-09-14 03:38:00,
2013-09-13 23:43:00,52.5,44.8,30.04,NNE,19,0.0,0.0,75,0.00,CLR,,0.00,WeatherDisplay:10.37,2013-09-14 03:43:00,
2013-09-13 23:48:00,52.3,44.6,30.04,NNE,19,0.0,0.0,75,0.00,CLR,,0.00,WeatherDisplay:10.37,2013-09-14 03:48:00,
2013-09-13 23:53:00,52.3,44.6,30.04,NE,42,0.0,0.0,75,0.00,CLR,,0.00,WeatherDisplay:10.37,2013-09-14 03:53:00,
2013-09-13 23:58:00,52.0,44.3,30.05,NNE,19,0.0,0.0,75,0.00,CLR,,0.00,WeatherDisplay:10.37,2013-09-14 03:58:00,